User: anonymous   Login
Location: Albany
(35.0000°S, 118.0000°E)
Time: 09:12:04
(UTC-05:00)
Language:

Cosmos 1758 Rocket - Orbit

View from above orbital plane
View from above orbital plane
View from above satellite
View from above satellite

Ground track
Ground track

The orbit data is extracted from the following two-line orbital elements,

1 16792U 86046B   15027.86427634  .00000336  00000-0  38496-4 0  6896
2 16792 082.4848 302.1135 0022824 281.6356 150.9916 14.82794894545747
Epoch (UTC): 27 January 2015 20:44:33
Eccentricity: 0.0022824
inclination: 82.4848°
perigee height: 604 km
apogee height: 636 km
right ascension of ascending node: 302.1135°
argument of perigee: 281.6356°
revolutions per day: 14.82794894
mean anomaly at epoch: 150.9916°
orbit number at epoch: 54574

The dashed part of the orbit path shows where the satellite is in the earth's shadow,  

DLR